Flag for Poland Weather past 2 weeks in Koszalin, Poland

Now
74 °F

Passing clouds.


Feels Like: 77 °F
Forecast: 58 / 68 °F
Wind: 3 mph from Southeast

Location: Koszalin

Current Time: Sep 1, 2015 at 2:00:26 AM

Latest Report: Sep 1, 2015 at 1:00 AM


Visibility: 25 mi

Pressure: 29.73 "Hg

Humidity: 62%

Dew point: 60 °F

Location of KoszalinLocation

Historic Weather in Koszalin — Graph

°F

Koszalin temperature yesterday

Maximum temperature yesterday: 89 °F (at 4:00 PM)
Minimum temperature yesterday: 59 °F (at 5:00 AM)
Average temperature yesterday: 72 °F

Past Weeks' High & Low Weather Summary

 TemperatureHumidityPressure
High89 °F (Aug 31, 4:00 PM)94% (Aug 28, 3:00 AM)30.37 "Hg (Aug 28, 3:00 AM)
Low53 °F (Aug 29, 5:00 AM)24% (Aug 19, 5:00 PM)29.75 "Hg (Sep 1, 12:00 AM)
Average68 °F58%30.07 "Hg
* Reported Midnight between Aug 16 and Aug 17 — Midnight between Aug 31 and Sep 1, Koszalin, Weather by CustomWeather, © 2015

Note: Actual official high and low records may vary slightly from our data, if they occured in-between our weather recording intervals... More about our weather records

Advertising

Koszalin weather history for previous 24 hours

 ConditionsComfort  
Time TempWeatherWind HumidityBarometerVisibility
12:00 AM
Tue, Sep 1
76 °FPassing clouds.5 mph60%29.75 "Hg19 mi
10:00 PM
Mon, Aug 31
78 °FOvercast.2 mph62%29.78 "Hg16 mi
9:00 PM75 °FPassing clouds.1 mph78%29.80 "Hg12 mi
8:00 PM78 °FOvercast.1 mph72%29.81 "Hg11 mi
7:00 PM81 °FOvercast.1 mph64%29.81 "Hg22 mi
6:00 PM84 °FPartly sunny.2 mph56%29.83 "Hg22 mi
5:00 PM84 °FPartly sunny.2 mph53%29.85 "Hg19 mi
4:00 PM89 °FOvercast.2 mph41%29.88 "Hg19 mi
3:00 PM88 °FOvercast.2 mph40%29.90 "Hg19 mi
2:00 PM85 °FOvercast.2 mph42%29.93 "Hg17 mi
1:00 PM83 °FOvercast.3 mph45%29.94 "Hg25 mi
12:00 PM79 °FOvercast.3 mph52%29.95 "Hg22 mi
11:00 AM74 °FOvercast.3 mph59%29.97 "Hg22 mi
10:00 AM71 °FOvercast.2 mph64%29.98 "Hg22 mi
9:00 AM67 °FOvercast.2 mph67%30.00 "Hg19 mi
8:00 AM64 °FOvercast.1 mph72%30.01 "Hg22 mi
7:00 AM63 °FOvercast.2 mph73%30.01 "Hg22 mi
6:00 AM60 °FOvercast.1 mph85%30.03 "Hg12 mi
5:00 AM59 °FPassing clouds.1 mph88%30.04 "Hg14 mi
4:00 AM59 °FPassing clouds.1 mph87%30.04 "Hg14 mi
3:00 AM62 °FPassing clouds.1 mph73%30.05 "Hg25 mi
2:00 AM60 °FThunderstorms. Passing clouds.1 mph83%30.06 "Hg16 mi
Weather by CustomWeather, © 2015

See weather overviewHow to use our weather pages